Flag for Greece Weather past 2 weeks in Iráklion, Crete, Greece

Now
68 °F

Scattered clouds.


Feels Like: 68 °F
Forecast: 57 / 71 °F
Wind: 29 mph from South

Location: Heraklion Airport

Current Time: Apr 25, 2015 at 7:02:23 PM

Latest Report: Apr 25, 2015 at 6:20 PM


Visibility: N/A

Pressure: 29.98 "Hg

Humidity: 40%

Dew point: 43 °F

Location of IráklionLocation

Historic Weather in Iráklion — Graph

°F

Iráklion temperature yesterday

Maximum temperature yesterday: 66 °F (at 2:20 PM)
Minimum temperature yesterday: 46 °F (at 5:20 AM)
Average temperature yesterday: 59 °F

Past Weeks' High & Low Weather Summary

 TemperatureHumidityPressure
High79 °F (Apr 18, 1:50 PM)100% (Apr 15, 11:50 PM)30.24 "Hg (Apr 15, 11:50 PM)
Low46 °F (Apr 24, 5:20 AM)28% (Apr 19, 9:50 AM)29.80 "Hg (Apr 19, 6:50 PM)
Average61 °F65%30.10 "Hg
* Reported Apr 10 5:20 PM — Apr 25 5:50 PM, Iráklion, Weather by CustomWeather, © 2015

Note: Actual official high and low records may vary slightly from our data, if they occured in-between our weather recording intervals... More about our weather records

Advertising

Iráklion weather history for previous 24 hours

 ConditionsComfort  
Time TempWeatherWind HumidityBarometerVisibility
5:50 PM
Sat, Apr 25
68 °FScattered clouds.26 mph40%29.98 "HgN/A
5:20 PM70 °FScattered clouds.28 mph38%29.98 "HgN/A
4:50 PM70 °FScattered clouds.29 mph38%29.98 "HgN/A
4:20 PM72 °FScattered clouds.29 mph36%30.01 "HgN/A
3:50 PM72 °FScattered clouds.26 mph36%30.01 "HgN/A
3:20 PM72 °FScattered clouds.26 mph38%30.01 "HgN/A
2:50 PM72 °FScattered clouds.29 mph38%30.01 "HgN/A
2:20 PM73 °FScattered clouds.26 mph33%30.04 "HgN/A
1:50 PM73 °FScattered clouds.29 mph33%30.04 "HgN/A
1:20 PM72 °FScattered clouds.28 mph44%30.04 "HgN/A
12:50 PM72 °FScattered clouds.26 mph44%30.04 "HgN/A
12:20 PM72 °FScattered clouds.23 mph41%30.07 "HgN/A
11:50 AM72 °FScattered clouds.24 mph41%30.07 "HgN/A
11:20 AM70 °FScattered clouds.20 mph40%30.09 "HgN/A
10:50 AM66 °FScattered clouds.18 mph46%30.09 "HgN/A
10:20 AM66 °FPartly sunny.12 mph52%30.09 "HgN/A
9:50 AM66 °FPartly sunny.9 mph52%30.09 "HgN/A
9:20 AM64 °FPartly sunny.10 mph60%30.09 "HgN/A
8:50 AM63 °FPartly sunny.8 mph56%30.12 "HgN/A
8:20 AM61 °FPartly sunny.7 mph68%30.12 "HgN/A
7:50 AM63 °FPartly sunny.6 mph56%30.09 "HgN/A
7:20 AM61 °FPassing clouds.18 mph55%30.04 "HgN/A
6:50 AM61 °FPassing clouds.3 mph55%30.04 "HgN/A
5:50 AM59 °FPassing clouds.3 mph63%30.07 "HgN/A
5:20 AM59 °FPassing clouds.3 mph59%30.07 "HgN/A
4:50 AM59 °FPassing clouds.3 mph59%30.07 "HgN/A
3:50 AM59 °FPassing clouds.3 mph63%30.07 "HgN/A
1:50 AM59 °FPassing clouds.3 mph63%30.09 "HgN/A
1:20 AM61 °FPassing clouds.3 mph59%30.12 "HgN/A
12:50 AM61 °FPassing clouds.3 mph59%30.12 "HgN/A
12:20 AM61 °FPassing clouds.5 mph59%30.12 "HgN/A
11:50 PM
Fri, Apr 24
61 °FPassing clouds.5 mph59%30.12 "HgN/A
11:20 PM59 °FPassing clouds.5 mph72%30.12 "HgN/A
10:50 PM59 °FPassing clouds.5 mph72%30.12 "HgN/A
10:20 PM59 °FPassing clouds.3 mph72%30.12 "HgN/A
9:50 PM59 °FPassing clouds.7 mph72%30.12 "HgN/A
9:20 PM59 °FPassing clouds.5 mph68%30.12 "HgN/A
8:50 PM59 °FPassing clouds.5 mph68%30.12 "HgN/A
8:20 PM61 °FPassing clouds.7 mph72%30.12 "HgN/A
7:50 PM61 °FScattered clouds.7 mph72%30.12 "HgN/A
7:20 PM63 °FScattered clouds.8 mph68%30.15 "HgN/A
Weather by CustomWeather, © 2015

See weather overviewHow to use our weather pages